Torna al catalogo

STARLINK-6229

AttivoComunicazioniVLEO
NORAD 57093·PAYLOAD·🇺🇸 United States

Lanciato Jun 22, 2023 da Vandenberg Space Force Base

Loading…

Prossimi Passaggi (prossime 24 ore)

TLE

AggiornatoSource: CelesTrak SupGP

Epoca: Sep 15, 2026, 02:20 UTC

1 57093C 23088AX  26258.09770833  .00040963  00000+0  14837-2 0  2589
2 57093  43.0002 106.3861 0001381 266.9543 269.3576 15.27558047    11

Traccia STARLINK-6229 in tempo reale con AllMySat

Download on the App Store